SCP
0 0 0 0 0 0 0 -0 0 0 0 -0 -0 -0 -1 -0 -0 -0 -0 0 -0 0 0 -0 -0 -0 0 -0 -0 0 0 0 0 0 0 0 0 0 0 0 0 0 0 0 0 0 0 0 0
0 0 -0 0 0 0 0 -0 0 -0 -0 -0 0 -0 -0 -0 -0 -0 -0 -0 -0 -0 0 0 0 0 0 -0 0 0 0 0 0 0 0 0 0 0 0 0 0 0 0 0 0 0 0 0 0
0 0 0 0 0 0 0 0 0 0 -0 0 -0 0 -0 -0 -1 -0 -0 -0 0 -0 -0 0 0 0 0 0 0 0 0 0 0 0 0 0 0 0 0 0 0 0 0 0 0 0 0 0 0
0 0 0 0 0 0 0 0 0 0 0 0 -0 -0 0 0 -0 -0 0 -1 -0 0 -0 -0 0 0 0 0 0 0 0 0 0 0 0 0 0 0 0 0 0 0 0 0 0 0 0 0 0
0 0 0 0 0 0 0 0 0 0 -0 0 -0 0 0 0 0 0 1 2 -0 -0 0 0 0 0 0 0 0 0 0 0 0 0 0 0 0 0 0 0 0 0 0 0 0 0 0 0 0
0 0 0 0 0 0 0 0 0 0 0 0 0 0 0 -0 0 0 0 0 1 0 0 0 1 0 0 0 0 0 0 0 0 0 0 0 0 0 0 0 0 0 0 0 0 0 0 0 0
0 0 0 0 0 0 0 0 0 0 0 0 0 0 0 0 0 0 0 0 1 3 1 0 0 0 -0 0 1 0 0 0 0 0 0 0 0 0 0 0 0 0 0 0 0 0 0 0 0
0 0 -0 -0 -0 0 0 0 0 0 0 0 0 0 0 0 0 0 0 0 0 2 1 1 0 -0 -0 1 1 1 0 0 0 1 1 1 1 1 0 0 0 0 0 0 0 0 0 0 0
0 0 0 0 0 0 0 0 0 0 0 0 0 0 0 0 0 0 0 0 -0 -0 -0 0 -0 0 0 -0 1 1 1 1 1 1 1 1 1 1 1 0 0 0 0 0 0 0 0 0 0
0 0 0 0 0 0 0 0 0 0 0 0 0 0 0 0 0 0 0 0 -0 0 0 1 1 1 0 1 2 1 1 0 1 1 1 1 0 0 0 0 0 0 0 0 1 1 1 1 1
0 0 0 0 0 0 0 0 0 0 0 0 0 0 0 0 0 0 0 0 0 -0 0 -0 0 0 -0 1 3 2 2 1 0 0 1 1 0 0 0 0 1 1 1 1 1 1 1 1 0
0 0 0 0 0 0 0 0 0 0 0 0 0 0 0 0 0 0 0 0 0 0 0 0 0 0 0 0 -0 2 0 0 0 0 2 1 0 0 0 0 0 1 1 1 1 1 0 0 0
0 0 0 0 0 0 0 0 0 0 0 0 0 0 0 0 0 0 0 0 0 0 0 0 0 0 0 0 0 0 0 0 1 2 2 2 1 0 0 1 1 1 1 1 1 1 0 0 0
0 0 0 0 -0 0 0 0 0 -0 0 0 0 0 0 0 0 0 0 0 0 0 0 0 0 0 0 0 0 0 0 0 0 2 2 3 1 0 1 1 1 2 2 1 1 1 1 0 0
-0 -0 -0 0 0 0 0 -0 0 0 0 0 0 0 0 0 0 0 0 0 0 0 0 -0 0 0 0 0 0 0 0 0 0 0 1 2 2 2 2 3 2 2 3 1 1 1 1 1 0
0 -0 -0 0 0 0 0 0 0 0 0 0 0 0 0 0 0 0 0 0 0 0 -0 -0 0 0 0 0 0 0 0 0 0 0 0 0 2 2 4 4 3 2 2 2 1 1 1 1 0
0 0 0 0 0 0 0 0 0 0 0 0 0 0 0 0 0 0 0 0 0 0 -0 -0 -0 -0 -0 -0 0 0 0 0 0 0 0 -0 2 2 4 3 3 2 2 2 2 1 1 1 1
0 0 0 0 0 0 0 0 0 0 0 0 0 0 0 0 0 0 0 0 0 0 0 0 -0 -0 -0 -0 -0 0 0 0 0 0 0 0 1 1 3 3 3 2 2 2 2 2 1 1 1
0 0 0 0 0 0 0 0 0 0 0 0 0 0 0 0 0 0 0 0 0 0 0 0 0 0 -0 -0 -0 -0 0 0 0 0 0 0 0 3 3 2 2 2 3 1 1 1 0 0 0
0 0 0 0 0 0 0 0 0 0 0 0 0 0 0 0 0 0 0 0 0 0 0 0 0 0 -0 -0 -0 -0 -0 0 0 0 0 0 0 2 3 2 3 4 1 2 1 1 1 0 0
0 0 0 0 0 0 0 0 0 0 0 0 0 0 0 0 0 0 0 0 0 0 0 0 0 0 0 0 -0 -0 -0 -0 0 0 1 0 0 0 0 0 0 2 0 0 1 1 0 0 0
0 0 0 0 0 0 0 0 0 -0 -0 0 0 0 0 0 0 0 0 0 0 0 0 0 0 0 0 0 -0 -0 -0 -0 0 0 0 0 0 0 0 0 0 0 0 0 0 0 0 0 0
0 0 0 0 0 0 0 0 0 0 0 0 0 0 0 0 0 0 0 0 0 -0 -0 0 0 0 0 0 -0 -0 0 0 0 0 0 0 0 0 0 0 0 0 0 0 0 0 0 0 0
0 0 0 0 0 0 0 0 0 0 0 0 0 0 0 0 0 0 0 0 0 0 0 0 0 -0 0 0 0 0 0 0 0 0 -0 0 0 0 0 0 0 0 0 0 -0 0 0 0 0
0 0 0 0 0 0 -0 0 0 0 0 0 0 0 0 0 0 0 0 0 0 0 0 0 0 0 0 0 0 0 -0 0 0 0 -0 -0 0 0 0 0 0 0 0 0 -0 0 0 0 0
0 0 0 0 0 0 0 0 0 0 0 0 0 0 0 0 -0 -0 0 0 0 0 0 0 0 0 0 0 0 -0 0 -0 -0 0 -0 -0 -0 0 0 0 0 0 0 0 0 0 0 0 0
0 0 0 0 0 0 0 0 0 0 -0 0 0 0 0 0 0 0 0 0 0 0 0 0 0 0 0 0 0 -0 -0 -0 -0 -0 -0 -0 -0 0 0 0 0 0 0 0 0 0 0 0 0
0 0 0 0 0 0 0 0 0 0 0 0 0 0 0 0 0 0 0 0 0 -0 0 0 0 0 0 0 0 -0 -0 -0 -0 -0 -0 -0 -0 -0 0 0 0 0 0 0 0 0 0 0 0
0 0 0 0 0 0 0 0 0 0 0 0 0 0 0 0 0 0 0 0 0 0 0 0 0 0 0 0 0 0 -0 -0 -0 -0 -0 -0 -0 -0 0 0 0 0 0 0 0 0 0 0 0
0 0 0 0 0 0 0 0 0 0 0 0 0 0 0 0 0 0 0 0 0 0 0 0 0 0 0 0 -0 -0 -0 0 -0 0 0 0 -0 -0 -0 0 0 0 0 0 0 0 0 0 0
Wind_Speed_500mb
26 26 24 21 7 9 12 8 8 31 22 56 55 39 23 39 17 9 38 40 15 6 18 15 16 16 14 15 13 13 15 15 13 12 12 10 11 10 11 13 16 16 16 18 20 22 22 22 22
20 21 8 8 5 5 13 2 21 12 25 54 54 45 37 10 43 31 34 35 30 7 21 18 15 15 13 12 12 9 13 12 11 11 10 8 7 7 9 9 10 13 14 16 16 15 16 18 19
12 20 11 3 1 2 6 12 17 32 27 41 25 52 17 28 33 28 35 23 27 19 26 17 14 12 11 10 10 7 9 9 9 7 6 5 5 4 5 8 9 9 10 13 16 16 15 15 16
18 3 10 6 15 19 8 11 21 22 38 48 31 17 52 31 24 18 36 19 27 23 22 14 7 9 9 8 7 5 6 8 7 5 3 1 1 2 5 8 9 10 12 14 17 19 18 18 18
9 10 4 2 18 12 12 30 29 15 12 49 40 19 47 37 24 21 18 9 15 25 9 15 8 7 5 3 4 2 4 4 3 3 3 3 4 6 7 10 13 13 15 16 19 22 24 23 23
8 6 3 5 17 14 8 21 29 30 41 41 35 46 33 19 28 30 30 28 12 5 13 12 13 16 12 7 6 5 7 7 6 6 6 8 10 10 11 13 16 17 19 20 21 24 26 28 29
13 2 13 15 30 8 6 12 20 17 31 26 22 14 35 28 33 31 24 20 4 15 7 11 8 8 10 5 7 3 0 7 12 14 13 14 14 15 16 17 20 21 22 24 26 27 27 29 31
28 5 18 15 5 4 6 7 24 25 16 22 24 9 11 20 24 19 24 25 25 9 5 10 9 8 10 15 3 3 5 2 12 21 23 23 23 20 19 20 22 24 25 26 29 31 33 33 34
25 4 12 12 18 4 15 13 21 12 10 3 12 24 22 22 23 23 27 23 38 51 19 19 18 14 15 26 19 27 11 10 20 17 22 29 29 27 25 22 17 23 22 25 30 34 36 38 40
12 6 16 7 9 9 16 13 21 14 28 19 28 26 26 27 22 23 21 27 30 32 55 35 31 24 24 10 11 20 15 22 31 41 27 21 34 30 30 27 16 17 24 28 28 33 34 40 42
7 7 8 19 19 14 11 24 17 10 10 24 26 27 27 23 24 25 21 22 25 27 20 36 30 24 24 14 11 16 25 27 37 26 32 26 16 15 14 10 16 24 28 29 27 23 24 25 28
2 15 16 15 17 18 13 15 15 9 3 13 14 18 19 22 22 24 22 22 23 29 34 38 38 41 32 30 34 21 25 36 33 27 36 29 22 23 24 22 22 28 32 35 35 34 30 27 28
5 9 1 14 1 5 17 15 11 22 5 7 10 8 10 11 18 16 22 27 27 29 31 40 47 47 49 49 50 44 35 34 21 29 37 33 32 29 36 32 32 32 38 34 30 31 32 34 35
9 10 1 13 12 6 7 14 18 40 18 13 3 11 7 11 12 12 23 26 28 30 35 41 45 42 39 38 40 45 41 38 37 30 39 43 41 35 46 31 40 41 48 45 41 43 38 42 47
12 3 15 13 17 9 8 17 11 35 23 17 14 22 15 15 16 25 22 22 26 35 43 48 45 44 44 43 42 39 42 41 43 41 36 53 52 50 45 52 44 39 52 53 49 45 48 48 56
8 6 8 19 19 13 17 13 18 8 33 32 31 27 21 25 25 23 18 19 27 36 49 52 53 51 52 50 45 41 40 39 43 46 44 50 46 51 58 46 42 43 47 49 48 46 47 44 45
7 9 7 5 30 11 11 11 9 31 32 23 22 21 35 37 26 19 15 16 25 36 43 48 56 60 65 63 52 47 45 42 40 41 50 57 45 47 57 54 45 37 44 38 41 43 42 47 45
12 13 16 12 15 10 11 16 17 44 46 49 45 34 40 31 25 21 12 13 18 22 27 35 48 56 67 72 67 57 52 48 46 46 41 55 55 52 59 62 57 46 41 43 37 39 41 40 40
9 12 15 12 14 12 16 16 21 46 52 42 38 42 36 31 27 19 14 12 14 21 30 26 31 43 54 69 71 72 70 66 62 49 44 44 55 62 65 61 55 54 49 45 33 31 32 41 39
14 13 12 12 22 20 22 29 28 24 6 35 37 34 34 32 31 29 24 21 22 31 24 18 32 46 53 59 68 69 69 66 60 51 40 40 52 62 71 61 54 51 57 20 29 34 20 24 28
11 14 16 15 18 16 13 18 20 32 36 30 29 27 21 29 30 17 18 19 24 34 23 33 40 44 47 53 65 76 70 66 68 59 40 40 48 47 73 64 62 35 21 20 14 17 22 28 29
10 15 17 16 13 7 5 18 28 3 25 6 30 16 13 25 28 26 24 37 38 38 31 34 44 47 49 51 60 65 62 62 61 57 46 42 41 40 45 48 53 48 35 13 36 41 42 44 40
10 3 10 16 19 8 17 5 11 32 27 37 51 58 69 49 53 61 51 47 55 56 58 48 44 41 38 40 49 52 61 60 56 51 41 47 33 29 28 32 36 38 60 34 42 52 45 48 45
11 17 17 10 5 2 4 3 11 11 13 21 35 52 49 43 37 32 32 42 37 37 47 49 56 63 59 57 54 48 51 63 63 56 54 51 45 30 12 23 15 5 9 27 42 46 50 41 47
18 13 9 9 9 8 30 14 3 7 12 21 23 36 42 40 34 39 45 38 25 23 21 41 50 45 45 60 57 50 48 40 52 58 51 46 44 36 34 28 38 39 20 23 40 39 40 44 47
8 5 6 8 6 9 11 8 2 10 28 31 39 39 41 42 40 42 41 41 46 43 40 36 32 45 33 40 50 59 59 47 45 46 53 44 41 32 34 32 23 7 35 36 37 37 44 45 48
7 5 9 2 9 6 7 10 7 18 12 29 30 31 32 32 36 43 42 49 37 30 40 41 31 37 35 40 50 55 59 60 57 51 46 39 45 38 31 24 12 21 23 31 31 36 40 45 45
13 12 6 7 4 10 5 9 8 16 10 11 16 32 30 26 29 32 36 40 34 27 22 37 32 34 35 41 39 43 51 60 61 53 49 48 39 39 40 31 26 24 22 22 22 27 32 35 38
15 7 8 5 4 5 8 8 13 25 10 11 27 29 21 15 25 32 35 39 38 39 35 34 40 42 38 37 35 35 40 52 57 53 52 43 45 42 43 37 31 29 27 28 26 26 26 27 28
6 2 3 8 13 11 9 17 7 7 13 45 34 28 14 10 19 30 35 36 30 29 37 36 41 41 45 45 57 65 62 43 55 51 46 42 43 46 39 37 26 23 25 27 20 19 23 19 22
Wind_Direction_500mb
314 324 333 320 19 70 292 292 355 31 27 78 88 103 130 137 152 203 149 144 172 159 179 185 157 139 124 103 101 101 98 97 97 105 121 123 111 110 123 134 140 148 161 172 173 173 182 195 205
328 346 346 283 81 22 283 26 17 20 34 103 73 91 93 98 124 145 176 182 173 134 192 178 166 146 129 109 101 93 87 83 88 104 116 123 121 124 130 140 151 158 167 178 185 188 195 207 216
341 352 330 125 272 310 296 11 5 345 37 28 85 61 48 114 105 140 152 155 148 155 155 155 164 155 131 109 94 69 72 77 79 86 101 127 137 137 152 166 172 183 190 198 206 215 221 223 233
1 3 312 79 284 286 281 22 360 354 35 50 114 61 68 79 99 153 158 163 150 114 99 93 142 158 138 125 101 70 52 52 43 37 53 95 196 203 192 200 205 215 217 220 227 234 239 240 240
329 291 10 240 275 289 44 31 5 0 31 42 65 73 55 57 76 40 156 198 194 81 75 88 101 132 119 80 61 37 31 37 23 7 341 309 282 259 239 228 227 229 236 236 234 239 244 246 250
299 248 8 256 249 274 40 46 25 22 51 40 57 75 46 36 53 36 50 149 145 65 108 119 129 106 67 19 4 347 355 336 323 317 314 304 292 276 268 257 245 245 244 243 247 247 247 251 255
226 27 260 254 268 340 86 32 57 17 43 40 23 95 60 36 21 4 22 59 105 165 139 126 139 47 18 59 168 189 162 319 320 309 290 273 265 269 270 268 267 261 256 255 253 253 255 258 261
232 110 292 294 303 126 68 37 90 53 52 53 54 78 60 41 12 18 21 24 33 257 95 132 139 70 31 339 185 261 200 62 319 307 303 293 277 265 264 266 269 269 266 265 266 267 266 262 260
245 16 275 341 4 69 66 60 75 46 0 95 112 73 51 34 30 4 357 8 15 53 74 52 43 3 20 354 292 288 264 313 294 263 272 277 275 273 266 265 277 279 283 283 279 274 271 272 271
165 125 236 91 27 22 76 41 56 34 353 43 53 38 23 12 11 352 348 348 5 32 66 61 44 35 14 309 253 266 269 288 290 306 280 280 271 270 267 257 254 281 291 295 298 285 284 280 278
222 180 31 60 41 22 14 45 73 17 39 67 46 28 19 14 0 12 8 15 4 350 346 9 3 12 13 39 350 255 289 286 307 299 272 266 250 266 254 298 300 286 293 302 297 301 308 313 282
43 70 38 61 45 1 40 30 345 356 14 104 60 10 4 6 11 37 32 13 356 346 329 311 316 323 319 316 328 313 291 277 305 297 266 257 250 272 260 233 242 260 269 282 289 288 295 295 292
148 119 77 95 285 58 15 332 278 277 261 114 49 352 327 21 21 50 55 32 17 3 340 321 314 319 303 294 282 285 290 285 298 271 285 273 272 259 252 246 230 242 256 259 271 277 280 278 288
355 350 232 151 251 133 198 267 299 278 247 164 153 277 281 73 96 85 44 29 14 358 346 333 323 320 312 307 301 287 280 264 268 286 267 275 267 253 234 262 245 244 247 251 261 262 260 270 270
290 214 273 224 203 197 100 318 266 260 212 188 238 258 139 115 110 84 56 24 358 352 340 337 341 341 333 323 309 304 288 280 263 251 276 291 279 257 244 264 247 261 251 248 252 265 263 275 268
256 278 260 237 195 194 130 261 282 188 190 201 232 237 146 130 106 87 57 16 357 349 344 351 354 351 349 343 337 320 300 285 272 261 249 258 289 253 240 238 259 267 250 252 252 256 265 276 285
305 279 208 117 201 165 162 250 318 333 328 289 263 223 133 114 100 76 61 20 357 345 346 349 350 349 350 347 338 333 323 300 279 269 256 252 276 249 245 252 255 247 257 254 248 252 262 278 288
328 355 348 357 339 23 10 345 341 325 315 300 293 140 125 113 106 102 88 11 346 354 343 340 341 340 341 343 341 338 332 322 296 273 262 254 264 260 255 253 261 254 254 259 263 267 274 273 282
318 322 310 306 24 36 345 337 307 295 283 277 119 124 127 120 117 102 63 38 18 7 342 333 341 343 346 344 344 341 340 330 320 290 267 253 252 263 265 262 257 252 246 255 264 280 274 276 292
302 318 341 351 2 14 338 303 279 285 167 115 118 122 129 131 113 90 79 58 25 2 336 357 355 349 348 343 343 339 338 336 333 329 292 284 268 264 258 258 245 240 248 268 273 278 283 287 295
333 42 11 354 344 325 304 314 308 291 130 138 132 129 135 127 105 82 50 6 1 13 13 351 345 343 345 341 337 333 329 335 334 325 319 307 295 283 256 242 236 248 222 260 265 261 260 265 276
1 17 13 334 337 291 4 290 298 354 27 50 137 127 60 117 90 72 51 53 36 45 40 29 6 0 356 349 350 342 342 343 343 340 329 334 317 278 247 229 239 250 251 254 285 276 273 281 295
268 338 283 279 275 335 346 22 3 43 40 47 48 45 50 49 52 46 55 44 23 1 351 349 360 2 350 346 349 352 352 353 353 348 356 1 333 318 287 267 273 281 278 271 264 269 283 281 291
340 8 329 291 266 81 254 275 350 22 44 71 53 42 39 45 32 24 21 1 11 358 347 345 346 344 337 343 339 346 341 352 356 0 7 14 11 12 327 321 274 302 259 242 255 260 285 278 284
22 15 333 344 13 254 356 3 238 60 77 77 71 63 46 37 27 12 359 346 336 341 331 346 351 348 359 355 354 335 339 339 5 8 7 12 12 20 18 346 285 229 270 289 281 276 278 281 292
5 40 157 288 331 273 286 250 212 71 92 72 61 59 56 40 23 16 0 350 345 335 334 329 347 339 354 358 347 344 344 343 340 343 352 4 18 356 8 32 32 181 213 226 257 269 276 284 282
349 341 229 313 287 23 241 41 137 46 68 60 71 64 42 24 10 359 340 345 349 335 316 323 342 339 346 339 330 328 330 339 341 336 342 327 343 348 346 345 301 281 257 245 258 270 280 284 285
182 227 343 338 306 277 254 321 288 34 65 56 24 82 62 31 8 4 13 12 17 6 342 329 321 346 347 351 335 327 325 326 338 338 330 332 320 332 331 341 336 314 307 299 296 290 292 293 296
331 7 20 127 122 241 313 249 355 319 151 149 88 74 59 22 352 350 0 6 356 359 355 344 343 339 331 328 339 335 321 319 327 330 330 330 324 304 325 329 333 330 330 329 327 321 321 313 315
247 6 79 123 270 245 221 276 270 54 93 97 93 92 63 351 325 343 349 357 4 351 349 342 331 326 328 317 319 319 312 309 318 317 321 324 325 331 326 329 338 346 351 342 343 346 332 355 2
Wind_Speed_850mb
26 26 24 21 7 9 12 8 8 31 22 56 55 39 23 39 17 9 38 40 15 6 18 15 16 16 14 15 13 13 15 15 13 12 12 10 11 10 11 13 16 16 16 18 20 22 22 22 22
20 21 8 8 5 5 13 2 21 12 25 54 54 45 37 10 43 31 34 35 30 7 21 18 15 15 13 12 12 9 13 12 11 11 10 8 7 7 9 9 10 13 14 16 16 15 16 18 19
12 20 11 3 1 2 6 12 17 32 27 41 25 52 17 28 33 28 35 23 27 19 26 17 14 12 11 10 10 7 9 9 9 7 6 5 5 4 5 8 9 9 10 13 16 16 15 15 16
18 3 10 6 15 19 8 11 21 22 38 48 31 17 52 31 24 18 36 19 27 23 22 14 7 9 9 8 7 5 6 8 7 5 3 1 1 2 5 8 9 10 12 14 17 19 18 18 18
9 10 4 2 18 12 12 30 29 15 12 49 40 19 47 37 24 21 18 9 15 25 9 15 8 7 5 3 4 2 4 4 3 3 3 3 4 6 7 10 13 13 15 16 19 22 24 23 23
8 6 3 5 17 14 8 21 29 30 41 41 35 46 33 19 28 30 30 28 12 5 13 12 13 16 12 7 6 5 7 7 6 6 6 8 10 10 11 13 16 17 19 20 21 24 26 28 29
13 2 13 15 30 8 6 12 20 17 31 26 22 14 35 28 33 31 24 20 4 15 7 11 8 8 10 5 7 3 0 7 12 14 13 14 14 15 16 17 20 21 22 24 26 27 27 29 31
28 5 18 15 5 4 6 7 24 25 16 22 24 9 11 20 24 19 24 25 25 9 5 10 9 8 10 15 3 3 5 2 12 21 23 23 23 20 19 20 22 24 25 26 29 31 33 33 34
25 4 12 12 18 4 15 13 21 12 10 3 12 24 22 22 23 23 27 23 38 51 19 19 18 14 15 26 19 27 11 10 20 17 22 29 29 27 25 22 17 23 22 25 30 34 36 38 40
12 6 16 7 9 9 16 13 21 14 28 19 28 26 26 27 22 23 21 27 30 32 55 35 31 24 24 10 11 20 15 22 31 41 27 21 34 30 30 27 16 17 24 28 28 33 34 40 42
7 7 8 19 19 14 11 24 17 10 10 24 26 27 27 23 24 25 21 22 25 27 20 36 30 24 24 14 11 16 25 27 37 26 32 26 16 15 14 10 16 24 28 29 27 23 24 25 28
2 15 16 15 17 18 13 15 15 9 3 13 14 18 19 22 22 24 22 22 23 29 34 38 38 41 32 30 34 21 25 36 33 27 36 29 22 23 24 22 22 28 32 35 35 34 30 27 28
5 9 1 14 1 5 17 15 11 22 5 7 10 8 10 11 18 16 22 27 27 29 31 40 47 47 49 49 50 44 35 34 21 29 37 33 32 29 36 32 32 32 38 34 30 31 32 34 35
9 10 1 13 12 6 7 14 18 40 18 13 3 11 7 11 12 12 23 26 28 30 35 41 45 42 39 38 40 45 41 38 37 30 39 43 41 35 46 31 40 41 48 45 41 43 38 42 47
12 3 15 13 17 9 8 17 11 35 23 17 14 22 15 15 16 25 22 22 26 35 43 48 45 44 44 43 42 39 42 41 43 41 36 53 52 50 45 52 44 39 52 53 49 45 48 48 56
8 6 8 19 19 13 17 13 18 8 33 32 31 27 21 25 25 23 18 19 27 36 49 52 53 51 52 50 45 41 40 39 43 46 44 50 46 51 58 46 42 43 47 49 48 46 47 44 45
7 9 7 5 30 11 11 11 9 31 32 23 22 21 35 37 26 19 15 16 25 36 43 48 56 60 65 63 52 47 45 42 40 41 50 57 45 47 57 54 45 37 44 38 41 43 42 47 45
12 13 16 12 15 10 11 16 17 44 46 49 45 34 40 31 25 21 12 13 18 22 27 35 48 56 67 72 67 57 52 48 46 46 41 55 55 52 59 62 57 46 41 43 37 39 41 40 40
9 12 15 12 14 12 16 16 21 46 52 42 38 42 36 31 27 19 14 12 14 21 30 26 31 43 54 69 71 72 70 66 62 49 44 44 55 62 65 61 55 54 49 45 33 31 32 41 39
14 13 12 12 22 20 22 29 28 24 6 35 37 34 34 32 31 29 24 21 22 31 24 18 32 46 53 59 68 69 69 66 60 51 40 40 52 62 71 61 54 51 57 20 29 34 20 24 28
11 14 16 15 18 16 13 18 20 32 36 30 29 27 21 29 30 17 18 19 24 34 23 33 40 44 47 53 65 76 70 66 68 59 40 40 48 47 73 64 62 35 21 20 14 17 22 28 29
10 15 17 16 13 7 5 18 28 3 25 6 30 16 13 25 28 26 24 37 38 38 31 34 44 47 49 51 60 65 62 62 61 57 46 42 41 40 45 48 53 48 35 13 36 41 42 44 40
10 3 10 16 19 8 17 5 11 32 27 37 51 58 69 49 53 61 51 47 55 56 58 48 44 41 38 40 49 52 61 60 56 51 41 47 33 29 28 32 36 38 60 34 42 52 45 48 45
11 17 17 10 5 2 4 3 11 11 13 21 35 52 49 43 37 32 32 42 37 37 47 49 56 63 59 57 54 48 51 63 63 56 54 51 45 30 12 23 15 5 9 27 42 46 50 41 47
18 13 9 9 9 8 30 14 3 7 12 21 23 36 42 40 34 39 45 38 25 23 21 41 50 45 45 60 57 50 48 40 52 58 51 46 44 36 34 28 38 39 20 23 40 39 40 44 47
8 5 6 8 6 9 11 8 2 10 28 31 39 39 41 42 40 42 41 41 46 43 40 36 32 45 33 40 50 59 59 47 45 46 53 44 41 32 34 32 23 7 35 36 37 37 44 45 48
7 5 9 2 9 6 7 10 7 18 12 29 30 31 32 32 36 43 42 49 37 30 40 41 31 37 35 40 50 55 59 60 57 51 46 39 45 38 31 24 12 21 23 31 31 36 40 45 45
13 12 6 7 4 10 5 9 8 16 10 11 16 32 30 26 29 32 36 40 34 27 22 37 32 34 35 41 39 43 51 60 61 53 49 48 39 39 40 31 26 24 22 22 22 27 32 35 38
15 7 8 5 4 5 8 8 13 25 10 11 27 29 21 15 25 32 35 39 38 39 35 34 40 42 38 37 35 35 40 52 57 53 52 43 45 42 43 37 31 29 27 28 26 26 26 27 28
6 2 3 8 13 11 9 17 7 7 13 45 34 28 14 10 19 30 35 36 30 29 37 36 41 41 45 45 57 65 62 43 55 51 46 42 43 46 39 37 26 23 25 27 20 19 23 19 22
Wind_Direction_850mb
314 324 333 320 19 70 292 292 355 31 27 78 88 103 130 137 152 203 149 144 172 159 179 185 157 139 124 103 101 101 98 97 97 105 121 123 111 110 123 134 140 148 161 172 173 173 182 195 205
328 346 346 283 81 22 283 26 17 20 34 103 73 91 93 98 124 145 176 182 173 134 192 178 166 146 129 109 101 93 87 83 88 104 116 123 121 124 130 140 151 158 167 178 185 188 195 207 216
341 352 330 125 272 310 296 11 5 345 37 28 85 61 48 114 105 140 152 155 148 155 155 155 164 155 131 109 94 69 72 77 79 86 101 127 137 137 152 166 172 183 190 198 206 215 221 223 233
1 3 312 79 284 286 281 22 360 354 35 50 114 61 68 79 99 153 158 163 150 114 99 93 142 158 138 125 101 70 52 52 43 37 53 95 196 203 192 200 205 215 217 220 227 234 239 240 240
329 291 10 240 275 289 44 31 5 0 31 42 65 73 55 57 76 40 156 198 194 81 75 88 101 132 119 80 61 37 31 37 23 7 341 309 282 259 239 228 227 229 236 236 234 239 244 246 250
299 248 8 256 249 274 40 46 25 22 51 40 57 75 46 36 53 36 50 149 145 65 108 119 129 106 67 19 4 347 355 336 323 317 314 304 292 276 268 257 245 245 244 243 247 247 247 251 255
226 27 260 254 268 340 86 32 57 17 43 40 23 95 60 36 21 4 22 59 105 165 139 126 139 47 18 59 168 189 162 319 320 309 290 273 265 269 270 268 267 261 256 255 253 253 255 258 261
232 110 292 294 303 126 68 37 90 53 52 53 54 78 60 41 12 18 21 24 33 257 95 132 139 70 31 339 185 261 200 62 319 307 303 293 277 265 264 266 269 269 266 265 266 267 266 262 260
245 16 275 341 4 69 66 60 75 46 0 95 112 73 51 34 30 4 357 8 15 53 74 52 43 3 20 354 292 288 264 313 294 263 272 277 275 273 266 265 277 279 283 283 279 274 271 272 271
165 125 236 91 27 22 76 41 56 34 353 43 53 38 23 12 11 352 348 348 5 32 66 61 44 35 14 309 253 266 269 288 290 306 280 280 271 270 267 257 254 281 291 295 298 285 284 280 278
222 180 31 60 41 22 14 45 73 17 39 67 46 28 19 14 0 12 8 15 4 350 346 9 3 12 13 39 350 255 289 286 307 299 272 266 250 266 254 298 300 286 293 302 297 301 308 313 282
43 70 38 61 45 1 40 30 345 356 14 104 60 10 4 6 11 37 32 13 356 346 329 311 316 323 319 316 328 313 291 277 305 297 266 257 250 272 260 233 242 260 269 282 289 288 295 295 292
148 119 77 95 285 58 15 332 278 277 261 114 49 352 327 21 21 50 55 32 17 3 340 321 314 319 303 294 282 285 290 285 298 271 285 273 272 259 252 246 230 242 256 259 271 277 280 278 288
355 350 232 151 251 133 198 267 299 278 247 164 153 277 281 73 96 85 44 29 14 358 346 333 323 320 312 307 301 287 280 264 268 286 267 275 267 253 234 262 245 244 247 251 261 262 260 270 270
290 214 273 224 203 197 100 318 266 260 212 188 238 258 139 115 110 84 56 24 358 352 340 337 341 341 333 323 309 304 288 280 263 251 276 291 279 257 244 264 247 261 251 248 252 265 263 275 268
256 278 260 237 195 194 130 261 282 188 190 201 232 237 146 130 106 87 57 16 357 349 344 351 354 351 349 343 337 320 300 285 272 261 249 258 289 253 240 238 259 267 250 252 252 256 265 276 285
305 279 208 117 201 165 162 250 318 333 328 289 263 223 133 114 100 76 61 20 357 345 346 349 350 349 350 347 338 333 323 300 279 269 256 252 276 249 245 252 255 247 257 254 248 252 262 278 288
328 355 348 357 339 23 10 345 341 325 315 300 293 140 125 113 106 102 88 11 346 354 343 340 341 340 341 343 341 338 332 322 296 273 262 254 264 260 255 253 261 254 254 259 263 267 274 273 282
318 322 310 306 24 36 345 337 307 295 283 277 119 124 127 120 117 102 63 38 18 7 342 333 341 343 346 344 344 341 340 330 320 290 267 253 252 263 265 262 257 252 246 255 264 280 274 276 292
302 318 341 351 2 14 338 303 279 285 167 115 118 122 129 131 113 90 79 58 25 2 336 357 355 349 348 343 343 339 338 336 333 329 292 284 268 264 258 258 245 240 248 268 273 278 283 287 295
333 42 11 354 344 325 304 314 308 291 130 138 132 129 135 127 105 82 50 6 1 13 13 351 345 343 345 341 337 333 329 335 334 325 319 307 295 283 256 242 236 248 222 260 265 261 260 265 276
1 17 13 334 337 291 4 290 298 354 27 50 137 127 60 117 90 72 51 53 36 45 40 29 6 0 356 349 350 342 342 343 343 340 329 334 317 278 247 229 239 250 251 254 285 276 273 281 295
268 338 283 279 275 335 346 22 3 43 40 47 48 45 50 49 52 46 55 44 23 1 351 349 360 2 350 346 349 352 352 353 353 348 356 1 333 318 287 267 273 281 278 271 264 269 283 281 291
340 8 329 291 266 81 254 275 350 22 44 71 53 42 39 45 32 24 21 1 11 358 347 345 346 344 337 343 339 346 341 352 356 0 7 14 11 12 327 321 274 302 259 242 255 260 285 278 284
22 15 333 344 13 254 356 3 238 60 77 77 71 63 46 37 27 12 359 346 336 341 331 346 351 348 359 355 354 335 339 339 5 8 7 12 12 20 18 346 285 229 270 289 281 276 278 281 292
5 40 157 288 331 273 286 250 212 71 92 72 61 59 56 40 23 16 0 350 345 335 334 329 347 339 354 358 347 344 344 343 340 343 352 4 18 356 8 32 32 181 213 226 257 269 276 284 282
349 341 229 313 287 23 241 41 137 46 68 60 71 64 42 24 10 359 340 345 349 335 316 323 342 339 346 339 330 328 330 339 341 336 342 327 343 348 346 345 301 281 257 245 258 270 280 284 285
182 227 343 338 306 277 254 321 288 34 65 56 24 82 62 31 8 4 13 12 17 6 342 329 321 346 347 351 335 327 325 326 338 338 330 332 320 332 331 341 336 314 307 299 296 290 292 293 296
331 7 20 127 122 241 313 249 355 319 151 149 88 74 59 22 352 350 0 6 356 359 355 344 343 339 331 328 339 335 321 319 327 330 330 330 324 304 325 329 333 330 330 329 327 321 321 313 315
247 6 79 123 270 245 221 276 270 54 93 97 93 92 63 351 325 343 349 357 4 351 349 342 331 326 328 317 319 319 312 309 318 317 321 324 325 331 326 329 338 346 351 342 343 346 332 355 2